Regional Weather Roundup
Issued by NWS

Home | Current Version | Previous Version | Text Only | Print | Product List | Glossary Off
Versions: 1 2 3 4 5 6 7 8 9 10 11 12 13 14 15 16 17 18 19 20 21 22 23 24 25 26 27 28 29 30 31 32 33 34 35 36 37 38 39 40 41 42 43 44 45 46 47 48 49 50

000
ASUS45 KABQ 201110
RWRNM
WEATHER ROUNDUP FOR NEW MEXICO
NATIONAL WEATHER SERVICE ALBUQUERQUE NM
400 AM MST SAT DEC 20 2014

NOTE: "FAIR" MEANS FEW OR NO CLOUDS BELOW 12,000 FEET AGL WITH NO
       SIGNIFICANT WEATHER OR OBSTRUCTIONS TO VISION.

      THIS PRODUCT IS RELEASED AS TWO VERSIONS.  ONE VERSION NEAR
      THE TOP OF THE HOUR CONTAINING PRELIMINARY DATA FROM ALBUQUERQUE
      AND OTHER STATIONS.  A FINAL VERSION WITH ADDITIONAL DATA IS
      ISSUED ABOUT 10 MINUTES AFTER THE HOUR.

NMZ501-503-504-510>518-201200-
NORTHWEST PLATEAU/NORTHCENTRAL MOUNTAINS

CITY           SKY/WX    TMP DP  RH WIND       PRES   REMARKS
FARMINGTON     MOCLDY    25  23  92 NE5       30.18F WCI  19
LOS ALAMOS     PTCLDY    22  18  85 CALM      30.14F
SANTA FE       PTCLDY    24  17  74 N12       30.13F WCI  13
TAOS           PTCLDY    12   9  85 N9        30.18S WCI   0
ANGEL FIRE     FAIR      -1  -4  86 CALM      30.15S

$$
NMZ402-403-502-505>509-201200-
WESTCENTRAL MOUNTAINS/SOUTHWEST MOUNTAINS

CITY           SKY/WX    TMP DP  RH WIND       PRES   REMARKS
GALLUP         CLOUDY    24  22  91 CALM      30.18F FOG
GRANTS         FOG       19  19  96 CALM      30.20F VSB 3/4
SILVER CITY    CLEAR     28  27  93 N8        30.18S WCI  20

$$
NMZ407-409-411-412-201200-
SOUTHERN DESERTS

CITY           SKY/WX    TMP DP  RH WIND       PRES   REMARKS
LORDSBURG      FAIR      28  28 100 CALM      30.17F
DEMING         CLEAR     26  25  96 CALM      30.16S
LAS CRUCES     CLEAR     29  26  89 NW9       30.16S WCI  20
HOLLOMAN AFB   PTCLDY    26  23  89 NE5       30.14F WCI  20
ALAMOGORDO     PTCLDY    27  23  86 CALM      30.15S
T OR C         CLEAR     32  22  66 N7        30.16S WCI  26

$$
NMZ519>523-201200-
CENTRAL VALLEYS/CENTRAL HIGHLANDS

CITY           SKY/WX    TMP DP  RH WIND       PRES   REMARKS
ALBUQUERQUE    PTCLDY    32  23  69 N6        30.18S WCI  26
DOUBLE EAGLE   PTCLDY    28  22  78 N7        30.17F WCI  21
MORIARTY ARPT  FAIR      23  19  84 N6        30.13S WCI  15
CLINES CORNERS PTCLDY    25  18  74 NW26G33   30.05F WCI   9
BELEN          FAIR      23  22  95 NW3       30.18F
SOCORRO        FAIR      25  22  87 CALM      30.18S

$$
NMZ524>526-539-540-201200-
SOUTHCENTRAL MOUNTAINS

CITY           SKY/WX    TMP DP  RH WIND       PRES   REMARKS
RUIDOSO        PTCLDY    28  19  69 W9        30.12F WCI  20

$$
NMZ527>531-201200-
NORTHEAST HIGHLANDS/NORTHEAST PLAINS

CITY           SKY/WX    TMP DP  RH WIND       PRES   REMARKS
LAS VEGAS      PTCLDY    23   9  55 N6        30.05F WCI  16
RATON          CLEAR     17  14  88 E7        30.06S WCI   8
CLAYTON        CLEAR     28  23  81 W7        30.04F WCI  21

$$
NMZ532>537-201200-
EASTCENTRAL PLAINS

CITY           SKY/WX    TMP DP  RH WIND       PRES   REMARKS
TUCUMCARI      PTCLDY    20  16  84 CALM      30.06F
CANNON AFB     FOG       24  23  96 NE3       30.08F VSB 1
CLOVIS AIRPORT CLOUDY    27  25  93 CALM      30.08F VSB 1/2

$$
NMZ028-029-538-201200-
SOUTHEAST PLAINS

CITY           SKY/WX    TMP DP  RH WIND       PRES   REMARKS
ROSWELL        PTCLDY    26  19  74 CALM      30.12S
ARTESIA        CLEAR     28  25  86 W7        30.12F WCI  21
CARLSBAD       CLEAR     29  23  78 NW8       30.10F WCI  21
HOBBS          FOG       36  36 100 E3        30.13F VSB 1/4


$$



USA.gov is the U.S. government's official web portal to all federal, state and local government web resources and services.